Location: Bosmont
(49.7318°N, 3.8587°E)
Time: 16:57:58
(UTC+00:00)

Meteor 1-11 Rocket - Pass Details

Date: 01 March 2024
Orbit: 830 x 915 km, 81.2° (Epoch: 12 April)

Event Time Altitude Azimuth Distance (km) Brightness Sun altitude
Exits shadow 20:32:26 11° 29° (NNE) 2,513 6.1 -29.9°
Drops below altitude 10° 20:32:42 10° 28° (NNE) 2,604 6.2 -29.9°
Sets 20:35:25 0° 19° (NNE) 3,557 7.0 -30.3°
